Regional Weather Roundup
Issued by NWS Newport/Morehead, NC

Current Version | Previous Version | Graphics & Text | Print | Product List | Glossary Off
Versions: 1 2 3 4 5 6 7 8 9 10 11 12 13 14 15 16 17 18 19 20 21 22 23 24 25 26 27 28 29 30 31 32 33 34 35 36 37 38 39 40 41 42 43 44 45 46 47 48 49 50

000
ASUS42 KMHX 172125
RWRMHX
WEATHER ROUNDUP FOR EASTERN NORTH CAROLINA
NATIONAL WEATHER SERVICE NEWPORT/MOREHEAD CITY NC
400 PM EST WED JAN 17 2018

NOTE: "FAIR" INDICATES FEW OR NO CLOUDS BELOW 12,000 FEET
WITH NO SIGNIFICANT WEATHER AND/OR OBSTRUCTIONS TO VISIBILITY

NCZ015>017-031-032-045>047-102-103-172200-
NORTH COAST

CITY           SKY/WX    TMP DP  RH WIND       PRES   REMARKS
EDENTON        CLOUDY    37  30  78 NE9       30.22S
ELIZABETH CITY CLOUDY    33  30  88 N16       30.22R
KITTY HAWK     CLOUDY    35  35 100 N12G21    30.18R
MANTEO         CLOUDY    35  32  89 N17G25    30.20R

$$

NCZ045>047-081-094-103-104-172200-
CENTRAL COAST

CITY           SKY/WX    TMP DP  RH WIND       PRES   REMARKS
FRISCO         LGT RAIN  39  38  96 NE13G23   30.13F FOG

$$

NCZ095-097-098-100-101-172200-
SOUTHERN COAST

CITY           SKY/WX    TMP DP  RH WIND       PRES   REMARKS
BEAUFORT       FAIR      45  36  70 NE13G23   30.14R
CEDAR ISLAND   NOT AVBL
JACKSONVILLE   CLOUDY    49  33  54 E12       30.12S
PINEY ISLAND   NOT AVBL
WILMINGTON     CLOUDY    49  35  58 E5        30.10F


$$

NCZ011>013-027>030-043-044-078>080-089-090>093-098-172200-
COASTAL PLAIN

CITY           SKY/WX    TMP DP  RH WIND       PRES   REMARKS
AHOSKIE        LGT SNOW  28  28  99 N12       30.24R VSB 3/4 WCI  18
CLINTON        CLOUDY    38  34  87 N7        30.15S
ELIZABETHTOWN  NOT AVBL
GOLDSBORO      LGT RAIN  38  31  76 N9        30.14F
GREENVILLE     FAIR      37  32  81 NE9       30.19F
HAVELOCK       MOSUNNY   46  36  68 NE10      30.14F
KENANSVILLE    LGT RAIN  39  32  75 NE7G17    30.13F
KINSTON        CLOUDY    41  32  70 N15       30.16F
NEW BERN       PTSUNNY   42  33  70 N16       30.16S
RICHLANDS      PTSUNNY   48  33  56 NE9       30.13S
ROCKY MOUNT    SNOW      32  32 100 N13       30.20S VSB 1/4
WASHINGTON     CLOUDY    40  31  71 NE10G16   30.18F
WHITEVILLE     DRIZZLE   41  33  73 N6        30.12S

$$

AMZ130-135-150-152-154-156-158-170-250-252-270-ANZ085-086-088-633-658-670-172200-
MARINE OBSERVATIONS

STATION/POSITION TIME  TEMP    WIND        PRES    WAVE   SWELL
                       AIR SEA DIR/SP/G            HT/PER HT/PER
                 (UTC) (F)     (DEG/KT/KT) (MB)    (FT/S) (FT/S)
CHESAPEAKE LIGHT NOT AVBL
64 E VA BEACH    2050   43 55  350/ 19/ 21 1022.1    7/10   5/10
DUCK             2100   34 39   20/ 22/ 25 1021.8
2 E DUCK         2100      40                N/A     6/ 5   2/12
OREGON INLET     2100   38 41  360/ 14/ 20 1021.3
13E OREGON INLT  2048      45                N/A     7/11   5/11
HATTERAS CG      2100   39 48   20/ 21/ 25 1019.7
DIAMOND BUOY     2110   48 72   10/ 23/ 29 1019.2
CAPE LOOKOUT     2100           10/ 21/ 26 1020.4
BEAUFORT LAB     2100   44 46   20/ 12/ 17 1020.4
30 SE NEW RVR IN 2108   49 58   60/ 17/ 23 1019.2
30 SE NEW RVR IN 2100      58                N/A     6/11   2/11
27 SE WRIGHTSVLE 2108   51 60   60/ 21/ 29 1018.5
5 SE WRIGHTSVLE  2108   47 47   60/ 12/ 16 1018.7
225 S CAPE HAT   2050   66 70  250/ 14/ 16 1015.9    7/11   7/11
41 SE CHARLESTON 2110   52 69  300/ 19/ 25 1019.4

$$




USA.gov is the U.S. government's official web portal to all federal, state and local government web resources and services.